Location: Ackerson Creek
(37.8210°N, 119.8757°W)
Time: 16:39:38
(UTC+00:00)

Cosmos 921 Rocket - Pass Details

Date: 13 April 2024
Orbit: 567 x 626 km, 75.8° (Epoch: 23 May)

Event Time Altitude Azimuth Distance (km) Brightness Sun altitude
Exits shadow 12:19:49 19° 224° (SW) 1,412 4.3 -13.3°
Maximum altitude 12:22:33 45° 289° (WNW) 806 3.3 -12.8°
Drops below altitude 10° 12:26:40 10° 3° (N) 1,928 5.9 -12.1°
Sets 12:29:00 0° 10° (N) 2,845 6.9 -11.6°
